Time,TemperatureF,DewpointF,PressureIn,WindDirection,WindDirectionDegrees,WindSpeedMPH,WindSpeedGustMPH,Humidity,HourlyPrecipIn,Conditions,Clouds,dailyrainin,SoftwareType,DateUTC
2013-03-12 00:08:00,51.6,48.0,29.65,SSE,164,0.0,-999.0,86,-99.99,,,0.07,weatherlink.com 1.10,2013-03-12 04:08:00,
2013-03-12 00:23:00,51.3,48.0,29.64,SSE,164,0.0,-999.0,88,-99.99,,,0.10,weatherlink.com 1.10,2013-03-12 04:23:00,
2013-03-12 00:38:00,50.8,48.0,29.67,SE,137,0.0,-999.0,89,-99.99,,,0.14,weatherlink.com 1.10,2013-03-12 04:38:00,
2013-03-12 00:53:00,51.0,48.0,29.66,SSE,148,3.0,-999.0,90,-99.99,,,0.19,weatherlink.com 1.10,2013-03-12 04:53:00,
2013-03-12 01:08:00,51.3,49.0,29.65,SSE,152,0.0,-999.0,90,-99.99,,,0.01,weatherlink.com 1.10,2013-03-12 05:08:00,
2013-03-12 01:23:00,51.4,49.0,29.64,SSE,160,3.0,-999.0,90,-99.99,,,0.06,weatherlink.com 1.10,2013-03-12 05:23:00,
2013-03-12 01:39:00,51.4,49.0,29.64,SSE,168,0.0,-999.0,90,-99.99,,,0.09,weatherlink.com 1.10,2013-03-12 05:39:00,
2013-03-12 01:54:00,48.6,45.0,29.64,NNW,344,5.0,-999.0,88,-99.99,,,0.11,weatherlink.com 1.10,2013-03-12 05:54:00,
2013-03-12 02:09:00,46.5,44.0,29.66,North,0,2.0,-999.0,90,-99.99,,,0.12,weatherlink.com 1.10,2013-03-12 06:09:00,
2013-03-12 02:24:00,46.1,43.0,29.68,NNW,329,5.0,-999.0,90,-99.99,,,0.13,weatherlink.com 1.10,2013-03-12 06:24:00,
2013-03-12 02:39:00,45.2,43.0,29.70,WNW,288,1.0,-999.0,90,-99.99,,,0.14,weatherlink.com 1.10,2013-03-12 06:39:00,
2013-03-12 02:54:00,44.3,41.0,29.70,WSW,253,2.0,-999.0,88,-99.99,,,0.14,weatherlink.com 1.10,2013-03-12 06:54:00,
2013-03-12 03:09:00,43.6,40.0,29.70,SW,224,8.0,-999.0,86,-99.99,,,0.14,weatherlink.com 1.10,2013-03-12 07:09:00,
2013-03-12 03:24:00,43.3,39.0,29.71,SW,233,5.0,-999.0,85,-99.99,,,0.14,weatherlink.com 1.10,2013-03-12 07:24:00,
2013-03-12 03:39:00,43.3,39.0,29.71,SW,230,0.0,-999.0,84,-99.99,,,0.14,weatherlink.com 1.10,2013-03-12 07:39:00,
2013-03-12 03:54:00,43.3,39.0,29.72,SW,222,0.0,-999.0,85,-99.99,,,0.14,weatherlink.com 1.10,2013-03-12 07:54:00,
2013-03-12 04:09:00,43.3,39.0,29.72,WSW,243,0.0,-999.0,84,-99.99,,,0.14,weatherlink.com 1.10,2013-03-12 08:09:00,
2013-03-12 04:24:00,43.2,39.0,29.72,SW,216,0.0,-999.0,85,-99.99,,,0.14,weatherlink.com 1.10,2013-03-12 08:24:00,
2013-03-12 04:39:00,42.9,39.0,29.73,SSW,192,0.0,-999.0,86,-99.99,,,0.15,weatherlink.com 1.10,2013-03-12 08:39:00,
2013-03-12 04:54:00,42.5,39.0,29.72,South,176,2.0,-999.0,86,-99.99,,,0.15,weatherlink.com 1.10,2013-03-12 08:54:00,
2013-03-12 05:09:00,42.2,39.0,29.72,SSE,158,0.0,-999.0,87,-99.99,,,0.15,weatherlink.com 1.10,2013-03-12 09:09:00,
2013-03-12 05:24:00,42.1,39.0,29.72,South,186,6.0,-999.0,87,-99.99,,,0.15,weatherlink.com 1.10,2013-03-12 09:24:00,
2013-03-12 05:39:00,41.8,38.0,29.73,South,178,4.0,-999.0,86,-99.99,,,0.15,weatherlink.com 1.10,2013-03-12 09:39:00,
2013-03-12 05:54:00,41.3,37.0,29.74,SW,229,2.0,-999.0,84,-99.99,,,0.15,weatherlink.com 1.10,2013-03-12 09:54:00,
2013-03-12 06:09:00,40.9,37.0,29.74,WSW,244,3.0,-999.0,85,-99.99,,,0.16,weatherlink.com 1.10,2013-03-12 10:09:00,
2013-03-12 06:24:00,40.3,37.0,29.75,West,261,5.0,-999.0,86,-99.99,,,0.17,weatherlink.com 1.10,2013-03-12 10:24:00,
2013-03-12 06:39:00,40.2,37.0,29.75,West,270,0.0,-999.0,88,-99.99,,,0.18,weatherlink.com 1.10,2013-03-12 10:39:00,
2013-03-12 06:54:00,39.5,37.0,29.76,NW,323,3.0,-999.0,89,-99.99,,,0.18,weatherlink.com 1.10,2013-03-12 10:54:00,
2013-03-12 07:09:00,38.5,36.0,29.75,NW,306,6.0,-999.0,90,-99.99,,,0.19,weatherlink.com 1.10,2013-03-12 11:09:00,
2013-03-12 07:24:00,38.0,35.0,29.76,NW,320,0.0,-999.0,90,-99.99,,,0.19,weatherlink.com 1.10,2013-03-12 11:24:00,
2013-03-12 07:39:00,37.9,35.0,29.77,NW,325,0.0,-999.0,90,-99.99,,,0.19,weatherlink.com 1.10,2013-03-12 11:39:00,
2013-03-12 07:54:00,37.8,36.0,29.77,NW,325,0.0,-999.0,91,-99.99,,,0.19,weatherlink.com 1.10,2013-03-12 11:54:00,
2013-03-12 08:09:00,37.8,36.0,29.77,NW,323,0.0,-999.0,91,-99.99,,,0.19,weatherlink.com 1.10,2013-03-12 12:09:00,
2013-03-12 08:24:00,37.9,36.0,29.78,NW,323,0.0,-999.0,91,-99.99,,,0.19,weatherlink.com 1.10,2013-03-12 12:24:00,
2013-03-12 08:39:00,37.8,36.0,29.79,NW,316,0.0,-999.0,91,-99.99,,,0.19,weatherlink.com 1.10,2013-03-12 12:39:00,
2013-03-12 08:54:00,37.3,35.0,29.80,WNW,289,0.0,-999.0,91,-99.99,,,0.20,weatherlink.com 1.10,2013-03-12 12:54:00,
2013-03-12 09:09:00,37.0,35.0,29.80,SSW,210,3.0,-999.0,91,-99.99,,,0.20,weatherlink.com 1.10,2013-03-12 13:09:00,
2013-03-12 09:24:00,37.0,35.0,29.80,WSW,241,5.0,-999.0,91,-99.99,,,0.20,weatherlink.com 1.10,2013-03-12 13:24:00,
2013-03-12 09:40:00,37.0,35.0,29.80,WSW,241,0.0,-999.0,91,-99.99,,,0.21,weatherlink.com 1.10,2013-03-12 13:40:00,
2013-03-12 09:55:00,36.9,35.0,29.81,West,263,6.0,-999.0,91,-99.99,,,0.21,weatherlink.com 1.10,2013-03-12 13:55:00,
2013-03-12 10:10:00,36.8,35.0,29.81,WSW,257,1.0,-999.0,91,-99.99,,,0.22,weatherlink.com 1.10,2013-03-12 14:10:00,
2013-03-12 10:25:00,36.5,34.0,29.82,NW,306,0.0,-999.0,91,-99.99,,,0.22,weatherlink.com 1.10,2013-03-12 14:25:00,
2013-03-12 10:40:00,36.2,34.0,29.82,SW,227,1.0,-999.0,91,-99.99,,,0.22,weatherlink.com 1.10,2013-03-12 14:40:00,
2013-03-12 10:55:00,36.0,34.0,29.81,WSW,248,1.0,-999.0,91,-99.99,,,0.22,weatherlink.com 1.10,2013-03-12 14:55:00,
2013-03-12 11:10:00,36.3,34.0,29.81,WSW,248,0.0,-999.0,91,-99.99,,,0.22,weatherlink.com 1.10,2013-03-12 15:10:00,
2013-03-12 11:25:00,36.8,34.0,29.83,WSW,251,0.0,-999.0,90,-99.99,,,0.22,weatherlink.com 1.10,2013-03-12 15:25:00,
2013-03-12 11:40:00,37.2,34.0,29.82,West,260,3.0,-999.0,89,-99.99,,,0.22,weatherlink.com 1.10,2013-03-12 15:40:00,
2013-03-12 11:55:00,37.3,33.0,29.82,West,277,5.0,-999.0,83,-99.99,,,0.22,weatherlink.com 1.10,2013-03-12 15:55:00,
2013-03-12 12:10:00,37.0,32.0,29.83,WNW,284,3.0,-999.0,81,-99.99,,,0.22,weatherlink.com 1.10,2013-03-12 16:10:00,
2013-03-12 12:25:00,36.9,31.0,29.82,West,274,6.0,-999.0,80,-99.99,,,0.22,weatherlink.com 1.10,2013-03-12 16:25:00,
2013-03-12 12:40:00,36.9,31.0,29.83,SW,233,6.0,-999.0,79,-99.99,,,0.22,weatherlink.com 1.10,2013-03-12 16:40:00,
2013-03-12 12:55:00,37.0,31.0,29.83,West,277,5.0,-999.0,79,-99.99,,,0.22,weatherlink.com 1.10,2013-03-12 16:55:00,
2013-03-12 13:10:00,37.6,31.0,29.83,WSW,253,1.0,-999.0,78,-99.99,,,0.22,weatherlink.com 1.10,2013-03-12 17:10:00,
2013-03-12 13:25:00,37.8,31.0,29.83,WSW,250,2.0,-999.0,76,-99.99,,,0.22,weatherlink.com 1.10,2013-03-12 17:25:00,
2013-03-12 13:40:00,37.6,31.0,29.82,West,264,1.0,-999.0,76,-99.99,,,0.22,weatherlink.com 1.10,2013-03-12 17:40:00,
2013-03-12 13:55:00,37.5,30.0,29.82,WNW,287,7.0,-999.0,75,-99.99,,,0.22,weatherlink.com 1.10,2013-03-12 17:55:00,
2013-03-12 14:10:00,37.3,31.0,29.84,West,271,7.0,-999.0,77,-99.99,,,0.22,weatherlink.com 1.10,2013-03-12 18:10:00,
2013-03-12 14:25:00,37.0,31.0,29.84,West,264,7.0,-999.0,78,-99.99,,,0.22,weatherlink.com 1.10,2013-03-12 18:25:00,
2013-03-12 14:40:00,36.9,31.0,29.84,West,260,6.0,-999.0,79,-99.99,,,0.22,weatherlink.com 1.10,2013-03-12 18:40:00,
2013-03-12 14:55:00,37.6,31.0,29.84,SSW,196,1.0,-999.0,77,-99.99,,,0.22,weatherlink.com 1.10,2013-03-12 18:55:00,
2013-03-12 15:10:00,37.8,30.0,29.84,WSW,246,6.0,-999.0,73,-99.99,,,0.22,weatherlink.com 1.10,2013-03-12 19:10:00,
2013-03-12 15:25:00,37.6,29.0,29.85,WSW,244,5.0,-999.0,72,-99.99,,,0.22,weatherlink.com 1.10,2013-03-12 19:25:00,
2013-03-12 15:40:00,37.3,29.0,29.85,SSW,206,6.0,-999.0,72,-99.99,,,0.22,weatherlink.com 1.10,2013-03-12 19:40:00,
2013-03-12 15:55:00,36.5,30.0,29.84,NW,320,8.0,-999.0,76,-99.99,,,0.22,weatherlink.com 1.10,2013-03-12 19:55:00,
2013-03-12 16:10:00,35.9,30.0,29.85,WNW,301,1.0,-999.0,80,-99.99,,,0.22,weatherlink.com 1.10,2013-03-12 20:10:00,
2013-03-12 16:25:00,36.3,30.0,29.85,West,281,1.0,-999.0,79,-99.99,,,0.22,weatherlink.com 1.10,2013-03-12 20:25:00,
2013-03-12 16:40:00,36.5,30.0,29.85,West,264,3.0,-999.0,77,-99.99,,,0.22,weatherlink.com 1.10,2013-03-12 20:40:00,
2013-03-12 16:55:00,36.5,29.0,29.86,WSW,247,8.0,-999.0,75,-99.99,,,0.22,weatherlink.com 1.10,2013-03-12 20:55:00,
2013-03-12 17:10:00,36.8,29.0,29.86,WSW,256,5.0,-999.0,74,-99.99,,,0.22,weatherlink.com 1.10,2013-03-12 21:10:00,
2013-03-12 17:25:00,36.8,29.0,29.86,SW,232,6.0,-999.0,73,-99.99,,,0.22,weatherlink.com 1.10,2013-03-12 21:25:00,
2013-03-12 17:40:00,36.6,29.0,29.87,WSW,257,6.0,-999.0,73,-99.99,,,0.22,weatherlink.com 1.10,2013-03-12 21:40:00,
2013-03-12 17:55:00,36.6,29.0,29.87,West,272,3.0,-999.0,73,-99.99,,,0.22,weatherlink.com 1.10,2013-03-12 21:55:00,
2013-03-12 18:10:00,36.6,28.0,29.87,WSW,257,3.0,-999.0,72,-99.99,,,0.22,weatherlink.com 1.10,2013-03-12 22:10:00,
2013-03-12 18:25:00,36.5,28.0,29.88,WSW,253,5.0,-999.0,72,-99.99,,,0.22,weatherlink.com 1.10,2013-03-12 22:25:00,
2013-03-12 18:40:00,36.5,28.0,29.88,SW,223,2.0,-999.0,72,-99.99,,,0.22,weatherlink.com 1.10,2013-03-12 22:40:00,
2013-03-12 18:55:00,36.5,28.0,29.88,WSW,241,4.0,-999.0,71,-99.99,,,0.22,weatherlink.com 1.10,2013-03-12 22:55:00,
2013-03-12 19:10:00,36.3,27.0,29.89,WSW,251,7.0,-999.0,70,-99.99,,,0.22,weatherlink.com 1.10,2013-03-12 23:10:00,
2013-03-12 19:25:00,36.3,27.0,29.90,West,267,5.0,-999.0,70,-99.99,,,0.22,weatherlink.com 1.10,2013-03-12 23:25:00,
2013-03-12 19:40:00,36.3,28.0,29.90,West,261,6.0,-999.0,71,-99.99,,,0.22,weatherlink.com 1.10,2013-03-12 23:40:00,
2013-03-12 19:55:00,36.2,28.0,29.91,WSW,246,2.0,-999.0,71,-99.99,,,0.22,weatherlink.com 1.10,2013-03-12 23:55:00,
2013-03-12 20:10:00,36.2,27.0,29.91,WSW,241,2.0,-999.0,70,-99.99,,,0.22,weatherlink.com 1.10,2013-03-13 00:10:00,
2013-03-12 20:25:00,36.2,27.0,29.92,WSW,250,5.0,-999.0,69,-99.99,,,0.22,weatherlink.com 1.10,2013-03-13 00:25:00,
2013-03-12 20:40:00,36.2,27.0,29.92,West,267,7.0,-999.0,69,-99.99,,,0.22,weatherlink.com 1.10,2013-03-13 00:40:00,
2013-03-12 20:55:00,36.0,27.0,29.92,WSW,241,2.0,-999.0,69,-99.99,,,0.22,weatherlink.com 1.10,2013-03-13 00:55:00,
2013-03-12 21:10:00,36.0,27.0,29.92,SW,234,0.0,-999.0,70,-99.99,,,0.22,weatherlink.com 1.10,2013-03-13 01:10:00,
2013-03-12 21:25:00,35.9,27.0,29.92,SW,233,2.0,-999.0,70,-99.99,,,0.22,weatherlink.com 1.10,2013-03-13 01:25:00,
2013-03-12 21:40:00,35.9,27.0,29.93,WSW,253,2.0,-999.0,71,-99.99,,,0.22,weatherlink.com 1.10,2013-03-13 01:40:00,
2013-03-12 21:55:00,35.9,27.0,29.93,SW,236,5.0,-999.0,70,-99.99,,,0.22,weatherlink.com 1.10,2013-03-13 01:55:00,
2013-03-12 22:10:00,35.9,27.0,29.94,West,260,1.0,-999.0,70,-99.99,,,0.22,weatherlink.com 1.10,2013-03-13 02:10:00,
2013-03-12 22:25:00,35.9,26.0,29.94,WSW,240,3.0,-999.0,68,-99.99,,,0.22,weatherlink.com 1.10,2013-03-13 02:25:00,
2013-03-12 22:40:00,35.9,26.0,29.94,SW,234,6.0,-999.0,68,-99.99,,,0.22,weatherlink.com 1.10,2013-03-13 02:40:00,
2013-03-12 22:55:00,35.9,26.0,29.94,SW,222,2.0,-999.0,67,-99.99,,,0.22,weatherlink.com 1.10,2013-03-13 02:55:00,
2013-03-12 23:10:00,36.0,26.0,29.95,SW,232,3.0,-999.0,66,-99.99,,,0.22,weatherlink.com 1.10,2013-03-13 03:10:00,
2013-03-12 23:25:00,36.0,26.0,29.95,WSW,239,5.0,-999.0,66,-99.99,,,0.22,weatherlink.com 1.10,2013-03-13 03:25:00,
2013-03-12 23:40:00,35.9,25.0,29.95,WSW,239,3.0,-999.0,65,-99.99,,,0.22,weatherlink.com 1.10,2013-03-13 03:40:00,
2013-03-12 23:55:00,35.9,25.0,29.95,WSW,240,2.0,-999.0,65,-99.99,,,0.22,weatherlink.com 1.10,2013-03-13 03:55:00,